Overview Statistics Trail Chart Weather Telemetry Raw packets
 

This is the latest recevied weather packets stored in our database for station/object KD8DNS. If no packets are shown the sender has not sent any weather packets the latest 10 day(s).

<< 85 86 87 88 89 90 91 >>
Time Temp. Humidity Pressure Rain* Wind** Luminosity Snow
1788044356 27.22° C 59% 1022.7 hPa 0 mm - 23 W/m² -
1788044060 27.78° C 58% 1022.7 hPa 0 mm - 23 W/m² -
1788043748 28.33° C 56% 1022.6 hPa 0 mm - 23 W/m² -
1788043443 28.89° C 55% 1022.7 hPa 0 mm - 27 W/m² -
1788043142 28.89° C 54% 1022.7 hPa 0 mm - 35 W/m² -
1788042837 28.89° C 54% 1022.5 hPa 0 mm - 43 W/m² -
1788042536 28.33° C 56% 1022.8 hPa 0 mm - 47 W/m² -
1788042226 28.33° C 56% 1022.8 hPa 0 mm - 49 W/m² -
1788041922 28.89° C 55% 1022.6 hPa 0 mm - 51 W/m² -
1788041617 29.44° C 53% 1022.6 hPa 0 mm - 62 W/m² -
1788041317 29.44° C 54% 1022.8 hPa 0 mm - 73 W/m² -
1788041016 29.44° C 53% 1022.7 hPa 0 mm - 75 W/m² -
1788040715 30° C 50% 1022.7 hPa 0 mm - 101 W/m² -
1788040409 30.56° C 53% 1022.6 hPa 0 mm - 81 W/m² -
1788040105 30° C 55% 1022.9 hPa 0 mm - 83 W/m² -
1788039800 30.56° C 49% 1022.8 hPa 0 mm - 67 W/m² -
1788039494 30° C 49% 1022.9 hPa 0 mm - 88 W/m² -
1788039204 30° C 49% 1022.7 hPa 0 mm - 160 W/m² -
1788038885 30° C 49% 1022.9 hPa 0 mm - 104 W/m² -
1788038580 30.56° C 49% 1022.9 hPa 0 mm - 107 W/m² -
1788038279 30° C 52% 1022.7 hPa 0 mm - 109 W/m² -
1788037974 30° C 51% 1022.8 hPa 0 mm - 98 W/m² -
1788037670 29.44° C 54% 1022.9 hPa 0 mm - 114 W/m² -
1788037364 28.89° C 55% 1023 hPa 0 mm - 116 W/m² -
1788037063 29.44° C 52% 1023 hPa 0 mm - 96 W/m² -

* Rain latest hour (hover to see other rain measurements)
** Current wind speed in m/s (hover to see current wind gust speed)